KB0OJV Weather Reports


time (UTC)temp
F
wind
direction
speed
knots
gust
knots
rain 1hr
in
rain 24hr
in
rain mn
in
humidity
%
barometer
mb
20260906161537 76 112 6.1 13.0 0.00 0.00 0.00 75 1020.0
20260906161010 76 155 7.0 12.2 0.00 0.00 0.00 75 1020.0
20260906160513 76 154 6.1 10.4 0.00 0.00 0.00 77 1020.0
20260906160022 75 146 4.3 9.6 0.00 0.00 0.00 77 1019.9
20260906155507 75 134 2.6 10.4 0.00 0.00 0.00 79 1020.0
20260906155010 74 103 2.6 12.2 0.00 0.00 0.00 80 1020.2
20260906154517 74 155 7.0 12.2 0.00 0.00 0.00 80 1020.2
20260906154009 74 123 5.2 11.3 0.00 0.00 0.00 80 1020.3
20260906153510 74 165 3.5 9.6 0.00 0.00 0.00 81 1020.3
20260906153038 73 149 2.6 9.6 0.00 0.00 0.00 81 1020.4
20260906152511 73 127 3.5 9.6 0.00 0.00 0.00 81 1020.4
20260906152011 73 123 5.2 10.4 0.00 0.00 0.00 81 1020.5
20260906151523 73 113 6.1 10.4 0.00 0.00 0.00 81 1020.4
20260906151013 73 123 3.5 9.6 0.00 0.00 0.00 83 1020.3
20260906150514 73 127 3.5 11.3 0.00 0.00 0.00 84 1020.3
20260906150015 72 132 7.8 17.4 0.00 0.00 0.00 83 1020.2
20260906145514 72 117 7.8 17.4 0.00 0.00 0.00 83 1020.1
20260906145015 72 184 6.1 10.4 0.00 0.00 0.00 85 1020.1
20260906144518 71 148 6.1 10.4 0.00 0.00 0.00 86 1020.0
20260906144014 71 144 5.2 10.4 0.00 0.00 0.00 86 1020.1
20260906143513 71 139 6.1 10.4 0.00 0.00 0.00 87 1020.2
20260906143018 71 219 3.5 7.0 0.00 0.00 0.00 87 1020.3
20260906142514 71 139 3.5 9.6 0.00 0.00 0.00 88 1020.3
20260906142015 70 127 5.2 9.6 0.00 0.00 0.00 88 1020.3
20260906141526 70 174 5.2 9.6 0.00 0.00 0.00 89 1020.2
20260906141015 70 162 2.6 11.3 0.00 0.00 0.00 90 1020.2
20260906140511 70 148 3.5 11.3 0.00 0.00 0.00 90 1020.1
20260906140029 70 105 3.5 7.8 0.00 0.00 0.00 91 1020.0
20260906135512 69 178 1.7 7.8 0.00 0.00 0.00 91 1020.1
20260906135009 69 162 3.5 7.8 0.00 0.00 0.00 92 1020.1
20260906134525 69 117 3.5 7.0 0.00 0.00 0.00 93 1020.0
20260906134013 69 121 1.7 9.6 0.00 0.00 0.00 93 1019.8
20260906133510 68 114 7.0 9.6 0.00 0.00 0.00 93 1019.8
20260906133016 68 136 3.5 9.6 0.00 0.00 0.00 94 1019.7
20260906132509 68 136 2.6 7.8 0.00 0.00 0.00 94 1019.7
20260906132014 68 131 5.2 7.8 0.00 0.00 0.00 94 1019.7
20260906131523 68 125 2.6 7.0 0.00 0.00 0.00 95 1019.7
20260906131013 68 115 2.6 7.0 0.00 0.00 0.00 95 1019.7
20260906130516 67 103 1.7 7.8 0.00 0.00 0.00 95 1019.7
20260906130026 67 132 3.5 7.8 0.00 0.00 0.00 95 1019.7
20260906125513 67 115 2.6 7.8 0.00 0.00 0.00 95 1019.8
20260906125016 67 182 2.6 7.8 0.00 0.00 0.00 95 1019.6
20260906124527 67 173 2.6 6.1 0.00 0.00 0.00 95 1019.6
20260906124008 67 136 3.5 6.1 0.00 0.00 0.00 95 1019.6
20260906123511 67 120 2.6 5.2 0.00 0.00 0.00 95 1019.6
20260906123030 66 125 1.7 5.2 0.00 0.00 0.00 95 1019.6
20260906122517 66 123 2.6 4.3 0.00 0.00 0.00 95 1019.6
20260906122011 66 132 2.6 4.3 0.00 0.00 0.00 94 1019.5
20260906121532 66 129 0.9 2.6 0.00 0.00 0.00 94 1019.4
20260906121019 66 95 1.7 1.7 0.00 0.00 0.00 94 1019.4
20260906120516 66 95 0.9 1.7 0.00 0.00 0.00 94 1019.3
20260906120023 66 82 0.0 3.5 0.00 0.00 0.00 94 1019.2
20260906115515 66 57 0.9 3.5 0.00 0.00 0.00 94 1019.2
20260906115017 65 79 1.7 6.1 0.00 0.00 0.00 94 1019.1
20260906114528 65 95 4.3 6.1 0.00 0.00 0.00 93 1019.1
20260906114013 65 145 2.6 5.2 0.00 0.00 0.00 92 1019.0
20260906113515 65 109 1.7 3.5 0.00 0.00 0.00 92 1019.0
20260906113027 65 122 1.7 3.5 0.00 0.00 0.00 92 1019.0
20260906112515 66 90 1.7 1.7 0.00 0.00 0.00 92 1019.1
20260906112013 66 88 0.0 0.0 0.00 0.00 0.00 91 1019.1
20260906111536 66 67 0.0 0.0 0.00 0.00 0.00 92 1019.1
20260906111011 66 74 0.0 0.0 0.00 0.00 0.00 92 1019.2
20260906110513 66 59 0.0 0.0 0.00 0.00 0.00 92 1019.0
20260906110023 67 56 0.0 0.0 0.00 0.00 0.00 91 1018.9
20260906105514 67 57 0.0 0.0 0.00 0.00 0.00 92 1018.9
20260906105015 67 57 0.0 0.0 0.00 0.00 0.00 92 1018.8
20260906104533 67 57 0.0 0.0 0.00 0.00 0.00 92 1018.7
20260906104016 67 57 0.0 0.0 0.00 0.00 0.00 92 1018.7
20260906103513 67 57 0.0 0.0 0.00 0.00 0.00 92 1018.7
20260906103030 68 57 0.0 0.0 0.00 0.00 0.00 92 1018.6
20260906102519 68 57 0.0 1.7 0.00 0.00 0.00 92 1018.6
20260906102019 68 57 0.0 1.7 0.00 0.00 0.00 92 1018.6
20260906101534 68 116 0.0 1.7 0.00 0.00 0.00 92 1018.5
20260906101017 68 123 0.0 3.5 0.00 0.00 0.00 92 1018.4
20260906100520 68 123 1.7 3.5 0.00 0.00 0.00 92 1018.4
20260906100030 68 117 1.7 3.5 0.00 0.00 0.00 92 1018.3
20260906095512 68 94 0.9 3.5 0.00 0.00 0.00 92 1018.2
20260906095012 68 80 0.9 3.5 0.00 0.00 0.00 92 1018.1
20260906094527 68 81 1.7 2.6 0.00 0.00 0.00 92 1018.1
20260906094018 68 87 0.9 2.6 0.00 0.00 0.00 92 1018.1
20260906093516 68 115 0.9 2.6 0.00 0.00 0.00 92 1018.0
20260906093029 68 113 0.0 3.5 0.00 0.00 0.00 92 1018.0
20260906092516 68 90 1.7 5.2 0.00 0.00 0.00 92 1017.9
20260906092016 68 117 2.6 6.1 0.00 0.00 0.00 92 1017.9
20260906091532 68 114 3.5 8.7 0.00 0.00 0.00 92 1017.9
20260906091014 68 138 3.5 8.7 0.00 0.00 0.00 92 1017.9
20260906090515 68 128 2.6 7.0 0.00 0.00 0.00 92 1017.9
20260906090042 68 119 3.5 6.1 0.00 0.00 0.00 91 1017.9
20260906085519 68 106 1.7 5.2 0.00 0.00 0.00 92 1017.9
20260906085015 68 111 2.6 5.2 0.00 0.00 0.00 91 1017.9
20260906084528 68 105 1.7 5.2 0.00 0.00 0.00 91 1017.9
20260906084021 68 119 1.7 5.2 0.00 0.00 0.00 91 1017.9
20260906083515 68 82 2.6 6.1 0.00 0.00 0.00 91 1017.8
20260906083026 69 98 2.6 6.1 0.00 0.00 0.00 91 1017.9
20260906082516 69 117 2.6 6.1 0.00 0.00 0.00 91 1017.9
20260906082016 69 120 1.7 4.3 0.00 0.00 0.00 91 1017.8
20260906081531 69 97 1.7 5.2 0.00 0.00 0.00 91 1017.9
20260906081016 69 89 1.7 5.2 0.00 0.00 0.00 91 1018.0
20260906080518 69 123 2.6 7.0 0.00 0.00 0.00 91 1018.0
20260906080037 69 156 3.5 7.0 0.00 0.00 0.00 91 1018.0
20260906075519 69 138 2.6 6.1 0.00 0.00 0.00 91 1017.9
20260906075016 69 122 3.5 6.1 0.00 0.00 0.00 91 1018.0
20260906074533 69 101 3.5 6.1 0.00 0.00 0.00 91 1018.0
20260906074016 69 95 2.6 5.2 0.00 0.00 0.00 91 1018.1
20260906073514 69 93 1.7 4.3 0.00 0.00 0.00 91 1018.1
20260906073027 69 111 2.6 7.8 0.00 0.00 0.00 91 1018.2
20260906072515 69 118 3.5 7.8 0.00 0.00 0.00 91 1018.1
20260906072013 69 141 3.5 7.0 0.00 0.00 0.00 91 1018.2
20260906071531 69 119 3.5 7.0 0.00 0.00 0.00 91 1018.2
20260906071020 69 129 3.5 7.0 0.00 0.00 0.00 90 1018.2
20260906070518 69 124 2.6 7.0 0.00 0.00 0.00 91 1018.2
20260906070032 69 115 1.7 5.2 0.00 0.00 0.00 91 1018.1
20260906065516 69 92 1.7 5.2 0.00 0.00 0.00 91 1018.2
20260906065014 69 94 1.7 5.2 0.00 0.00 0.00 91 1018.2
20260906064530 69 90 0.9 3.5 0.00 0.00 0.00 91 1018.3
20260906064015 69 101 1.7 3.5 0.00 0.00 0.00 91 1018.3
20260906063519 69 93 1.7 3.5 0.00 0.00 0.00 91 1018.3
20260906063026 69 127 1.7 3.5 0.00 0.00 0.00 91 1018.3
20260906062518 69 88 0.9 3.5 0.00 0.00 0.00 91 1018.4
20260906062019 69 78 1.7 3.5 0.00 0.00 0.00 91 1018.3
20260906061531 69 91 1.7 3.5 0.00 0.00 0.00 91 1018.3
20260906061017 69 80 2.6 5.2 0.00 0.00 0.00 91 1018.3
20260906060516 69 84 2.6 5.2 0.00 0.00 0.00 91 1018.4
20260906060035 69 91 2.6 5.2 0.00 0.00 0.00 91 1018.3
20260906055516 69 97 1.7 5.2 0.00 0.00 0.00 91 1018.3
20260906055014 69 90 2.6 4.3 0.00 0.00 0.00 91 1018.3
20260906054532 69 77 1.7 2.6 0.00 0.00 0.00 91 1018.3
20260906054020 69 85 0.9 2.6 0.00 0.00 0.00 90 1018.3
20260906053516 69 98 0.9 1.7 0.00 0.00 0.00 90 1018.3
20260906053032 69 93 0.0 1.7 0.00 0.00 0.00 90 1018.3
20260906052519 69 81 0.0 0.0 0.00 0.00 0.00 90 1018.3
20260906052019 69 65 0.0 0.0 0.00 0.00 0.00 89 1018.3
20260906051535 69 65 0.0 0.0 0.00 0.00 0.00 89 1018.4
20260906051021 69 65 0.0 0.9 0.00 0.00 0.00 89 1018.3
20260906050520 69 65 0.0 1.7 0.00 0.00 0.00 89 1018.3
20260906050009 69 67 0.9 1.7 0.00 0.00 0.00 89 1018.3
20260906045510 69 69 0.0 1.7 0.00 0.00 0.00 89 1018.4
20260906045006 69 69 0.0 0.0 0.00 0.00 0.00 89 1018.5
20260906044516 69 69 0.0 0.0 0.00 0.00 0.00 89 1018.5
20260906044012 70 69 0.0 0.0 0.00 0.00 0.00 89 1018.5
20260906043507 70 82 0.0 0.0 0.00 0.00 0.00 89 1018.5
20260906043028 70 74 0.0 0.0 0.00 0.00 0.00 89 1018.5
20260906042513 70 69 0.0 0.9 0.00 0.00 0.00 89 1018.6
20260906042005 70 68 0.0 1.7 0.00 0.00 0.00 89 1018.6
20260906041528 70 68 0.9 2.6 0.00 0.00 0.00 89 1018.7
20260906041015 70 67 0.9 2.6 0.00 0.00 0.00 89 1018.7
20260906040514 70 54 0.9 1.7 0.00 0.00 0.00 89 1018.7
20260906040016 70 86 0.9 1.7 0.00 0.00 0.00 89 1018.7
20260906035513 69 90 1.7 2.6 0.00 0.00 0.00 89 1018.7
20260906035006 70 56 1.7 2.6 0.00 0.00 0.00 88 1018.7
20260906034508 69 57 1.7 1.7 0.00 0.00 0.00 88 1018.7
20260906034009 69 78 0.9 1.7 0.00 0.00 0.00 88 1018.7
20260906033509 69 78 0.9 1.7 0.00 0.00 0.00 88 1018.7
20260906033018 69 78 0.9 1.7 0.00 0.00 0.00 88 1018.7
20260906032513 69 78 1.7 1.7 0.00 0.00 0.00 88 1018.7
20260906032013 69 83 0.0 0.0 0.00 0.00 0.00 88 1018.8
20260906031531 69 112 0.0 0.0 0.00 0.00 0.00 88 1018.8
20260906031006 70 112 0.0 0.0 0.00 0.00 0.00 87 1018.8
20260906030515 70 112 0.0 0.0 0.00 0.00 0.00 87 1018.8
20260906030029 70 112 0.0 0.0 0.00 0.00 0.00 87 1018.7
20260906025520 70 112 0.0 0.0 0.00 0.00 0.00 87 1018.6
20260906025011 70 144 0.0 0.0 0.00 0.00 0.00 86 1018.3
20260906024526 70 144 0.0 0.0 0.00 0.00 0.00 86 1018.3
20260906024008 70 144 0.0 0.0 0.00 0.00 0.00 86 1018.3
20260906023511 70 144 0.0 0.0 0.00 0.00 0.00 85 1018.3
20260906023013 71 144 0.0 0.0 0.00 0.00 0.00 85 1018.2
20260906022511 71 144 0.0 0.0 0.00 0.00 0.00 84 1018.1
20260906022009 71 144 0.0 0.0 0.00 0.00 0.00 84 1018.1
20260906021512 71 144 0.0 0.0 0.00 0.00 0.00 83 1018.0
20260906021014 71 144 0.0 0.0 0.00 0.00 0.00 83 1017.9
20260906020514 72 144 0.0 0.0 0.00 0.00 0.00 82 1017.8
20260906020031 72 144 0.0 0.0 0.00 0.00 0.00 81 1017.7
20260906015510 72 113 0.0 0.0 0.00 0.00 0.00 81 1017.5
20260906015016 73 111 0.0 0.0 0.00 0.00 0.00 81 1017.0
20260906014532 73 111 0.0 0.0 0.00 0.00 0.00 80 1016.9
20260906014009 73 111 0.0 0.0 0.00 0.00 0.00 79 1016.9
20260906013513 74 111 0.0 0.0 0.00 0.00 0.00 78 1016.8
20260906013010 74 115 0.0 0.0 0.00 0.00 0.00 77 1016.8
20260906012512 75 115 0.0 0.0 0.00 0.00 0.00 77 1016.7
20260906012012 75 117 0.0 0.0 0.00 0.00 0.00 77 1016.8
20260906011517 75 111 0.0 0.9 0.00 0.00 0.00 75 1016.7
20260906011012 76 111 0.0 1.7 0.00 0.00 0.00 75 1016.7
20260906010507 77 140 0.9 2.6 0.00 0.00 0.00 73 1016.6
20260906010022 77 123 0.9 3.5 0.00 0.00 0.00 72 1016.5
20260906005515 77 155 0.0 3.5 0.00 0.00 0.00 72 1016.5
20260906005016 77 129 1.7 6.1 0.00 0.00 0.00 71 1016.4
20260906004533 78 151 1.7 7.0 0.00 0.00 0.00 71 1016.4
20260906004015 78 135 3.5 7.8 0.00 0.00 0.00 70 1016.4
20260906003514 78 130 5.2 7.8 0.00 0.00 0.00 70 1016.5
20260906003015 79 130 3.5 7.0 0.00 0.00 0.00 69 1016.5
20260906002512 79 150 4.3 8.7 0.00 0.00 0.00 69 1016.5
20260906002009 80 128 4.3 8.7 0.00 0.00 0.00 68 1016.5
20260906001535 80 144 2.6 7.0 0.00 0.00 0.00 69 1016.5
20260906001010 81 120 4.3 9.6 0.00 0.00 0.00 68 1016.5
20260906000512 81 123 5.2 9.6 0.00 0.00 0.00 68 1016.4
20260906000024 81 102 3.5 10.4 0.00 0.00 0.00 68 1016.4
20260905235510 82 117 6.1 10.4 0.00 0.00 0.00 67 1016.3
20260905235014 82 161 4.3 11.3 0.00 0.00 0.00 67 1016.1
20260905234529 82 70 7.0 11.3 0.00 0.00 0.00 67 1015.9
20260905234015 83 107 6.1 11.3 0.00 0.00 0.00 67 1015.9
20260905233511 83 159 7.0 11.3 0.00 0.00 0.00 66 1015.8
20260905233026 83 123 5.2 12.2 0.00 0.00 0.00 66 1015.8
20260905232523 83 119 7.0 12.2 0.00 0.00 0.00 66 1015.8
20260905232011 84 126 7.8 14.8 0.00 0.00 0.00 66 1015.7
20260905231528 84 144 7.8 14.8 0.00 0.00 0.00 65 1015.6
20260905231014 85 145 7.0 12.2 0.00 0.00 0.00 64 1015.4
20260905230511 85 131 7.0 10.4 0.00 0.00 0.00 63 1015.4
20260905230023 85 134 4.3 8.7 0.00 0.00 0.00 63 1015.6
20260905225516 85 126 5.2 8.7 0.00 0.00 0.00 63 1015.8
20260905225014 85 74 4.3 11.3 0.00 0.00 0.00 62 1015.8
20260905224527 85 93 7.0 12.2 0.00 0.00 0.00 62 1015.6
20260905224011 85 81 5.2 12.2 0.00 0.00 0.00 62 1015.5
20260905223519 85 92 7.0 10.4 0.00 0.00 0.00 62 1015.5
20260905223042 86 130 3.5 10.4 0.00 0.00 0.00 62 1015.6
20260905222514 86 113 7.8 10.4 0.00 0.00 0.00 62 1015.7
20260905222013 86 140 4.3 9.6 0.00 0.00 0.00 62 1015.7
20260905221534 85 139 4.3 9.6 0.00 0.00 0.00 62 1015.4
20260905221019 85 130 5.2 11.3 0.00 0.00 0.00 62 1015.4
20260905220519 86 109 6.1 11.3 0.00 0.00 0.00 63 1015.4
20260905220019 85 88 6.1 13.0 0.00 0.00 0.00 63 1015.4
20260905215513 85 102 4.3 13.0 0.00 0.00 0.00 63 1015.4
20260905215016 86 102 6.1 12.2 0.00 0.00 0.00 62 1015.4
20260905214527 86 94 6.1 12.2 0.00 0.00 0.00 63 1015.5
20260905214012 85 85 7.0 11.3 0.00 0.00 0.00 63 1015.5
20260905213515 85 148 5.2 11.3 0.00 0.00 0.00 64 1015.6
20260905213028 85 94 5.2 11.3 0.00 0.00 0.00 64 1015.6
20260905212524 85 128 6.1 9.6 0.00 0.00 0.00 64 1015.7
20260905212018 85 126 3.5 12.2 0.00 0.00 0.00 64 1015.9
20260905211524 85 101 6.1 12.2 0.00 0.00 0.00 64 1016.1
20260905211015 85 146 5.2 9.6 0.00 0.00 0.00 65 1016.3
20260905210518 85 128 4.3 12.2 0.00 0.00 0.00 64 1016.3
20260905210045 84 138 7.0 12.2 0.00 0.00 0.00 64 1016.3
20260905205514 84 98 6.1 8.7 0.00 0.00 0.00 64 1016.5
20260905205011 84 167 6.1 8.7 0.00 0.00 0.00 66 1016.8
20260905204523 84 84 4.3 8.7 0.00 0.00 0.00 66 1016.8
20260905204012 83 99 3.5 7.8 0.00 0.00 0.00 65 1016.8
20260905203517 83 105 3.5 7.0 0.00 0.00 0.00 66 1017.0
20260905203027 83 94 3.5 7.0 0.00 0.00 0.00 66 1017.1
20260905202515 83 79 2.6 7.8 0.00 0.00 0.00 65 1017.1
20260905202011 83 29 2.6 7.8 0.00 0.00 0.00 65 1017.3
20260905201532 83 110 2.6 6.1 0.00 0.00 0.00 65 1017.4
20260905201018 83 123 3.5 7.0 0.00 0.00 0.00 66 1017.4
20260905200520 83 121 2.6 7.0 0.00 0.00 0.00 66 1017.5
20260905200016 83 65 3.5 7.0 0.00 0.00 0.00 66 1017.4
20260905195510 82 96 2.6 6.1 0.00 0.00 0.00 69 1017.4
20260905195011 82 137 1.7 4.3 0.00 0.00 0.00 66 1017.5
20260905194520 82 68 1.7 5.2 0.00 0.00 0.00 67 1017.5
20260905194013 82 135 2.6 6.1 0.00 0.00 0.00 67 1017.6
20260905193510 82 75 3.5 6.1 0.00 0.00 0.00 68 1017.5
20260905193023 81 109 0.9 6.1 0.00 0.00 0.00 69 1017.7
20260905192516 82 40 1.7 6.1 0.00 0.00 0.00 67 1017.8
20260905192016 82 74 0.9 4.3 0.00 0.00 0.00 67 1017.8
20260905191520 82 57 2.6 4.3 0.00 0.00 0.00 67 1017.7
20260905191020 82 58 2.6 7.0 0.00 0.00 0.00 67 1017.7
20260905190518 83 51 2.6 7.0 0.00 0.00 0.00 66 1017.8
20260905190017 83 69 4.3 7.8 0.00 0.00 0.00 66 1017.8
20260905185507 83 205 3.5 8.7 0.00 0.00 0.00 66 1017.7
20260905185007 82 94 3.5 9.6 0.00 0.00 0.00 66 1017.7
20260905184531 82 121 4.3 9.6 0.00 0.00 0.00 66 1017.7
20260905184010 82 138 5.2 9.6 0.00 0.00 0.00 69 1017.6
20260905183512 82 146 5.2 8.7 0.00 0.00 0.00 70 1017.6
20260905183035 81 121 5.2 8.7 0.00 0.00 0.00 70 1017.6
20260905182509 81 26 3.5 7.8 0.00 0.00 0.00 70 1017.7
20260905182014 81 125 4.3 7.8 0.00 0.00 0.00 70 1017.7
20260905181535 81 90 1.7 7.0 0.00 0.00 0.00 69 1017.8
20260905181014 81 139 2.6 8.7 0.00 0.00 0.00 70 1017.9
20260905180513 81 128 1.7 8.7 0.00 0.00 0.00 70 1018.0
20260905180037 81 138 2.6 7.8 0.00 0.00 0.00 71 1018.0
20260905175521 81 92 1.7 7.8 0.00 0.00 0.00 71 1018.2
20260905175017 81 133 2.6 9.6 0.00 0.00 0.00 72 1018.1
20260905174520 81 128 5.2 9.6 0.00 0.00 0.00 73 1018.3
20260905174010 80 219 1.7 6.1 0.00 0.00 0.00 75 1018.3
20260905173510 79 107 0.9 8.7 0.00 0.00 0.00 74 1018.4
20260905173029 79 116 5.2 8.7 0.00 0.00 0.00 76 1018.5
20260905172512 78 119 1.7 6.1 0.00 0.00 0.00 76 1018.5
20260905172013 78 195 1.7 6.1 0.00 0.00 0.00 80 1018.5
20260905171528 77 143 3.5 6.1 0.00 0.00 0.00 80 1018.4
20260905171015 76 71 3.5 7.0 0.00 0.00 0.00 79 1018.4
20260905170514 76 183 2.6 7.0 0.00 0.00 0.00 81 1018.3
20260905170029 76 131 2.6 5.2 0.00 0.00 0.00 81 1018.4
20260905165511 76 45 2.6 4.3 0.00 0.00 0.00 82 1018.4
20260905165020 76 69 2.6 4.3 0.00 0.00 0.00 82 1018.4
20260905164533 75 63 1.7 4.3 0.00 0.00 0.00 82 1018.5
20260905164022 75 5 0.9 3.5 0.00 0.00 0.00 82 1018.4
20260905163513 75 34 2.6 3.5 0.00 0.00 0.00 83 1018.5
20260905163018 75 123 0.9 2.6 0.00 0.00 0.00 86 1018.6
20260905162510 74 131 1.7 2.6 0.00 0.00 0.00 85 1018.6
20260905162010 74 92 0.0 3.5 0.00 0.00 0.00 86 1018.5